{"data":{"norad_id":68998,"epoch":"2026-05-24T23:53:56.395104Z","epoch_age_seconds":85884,"freshness":"FRESH","line1":"1 68998U 26100U   26144.99579161  .00001211  00000+0  12517-3 0  9996","line2":"2 68998  97.7418  42.8957 0002729 127.5800 232.5667 14.91918449  3246","mean_motion":14.91918449,"eccentricity":0.0002729,"inclination_deg":97.7418,"raan_deg":42.8957,"arg_perigee_deg":127.58,"mean_anomaly_deg":232.5667,"bstar":0.00012517,"rev_number":324,"period_min":96.520020981388,"perigee_km":590.05191829647,"apogee_km":593.85619399492,"semimajor_km":6970.0910561457,"source":"CELESTRAK","updated_at":"2026-05-25T13:38:09.034333Z"}}